KK5DC Weather Reports


Display with metric or nautical units.
time (UTC)temp
F
wind
direction
speed
MPH
gust
MPH
rain 1hr
in
rain 24hr
in
rain mn
in
humidity
%
barometer
mb
20260902042008 82 165 0.0 2.0 0.00 0.00 0.00 68 1016.2
20260902041523 83 71 1.0 3.0 0.00 0.00 0.00 68 1015.4
20260902041517 83 115 0.0 3.0 0.00 0.00 0.00 68 1016.1
20260902041011 83 279 1.0 6.0 0.00 0.00 0.00 67 1016.0
20260902041005 83 64 1.0 6.0 0.00 0.00 0.00 67 1015.3
20260902040511 83 64 2.0 6.0 0.00 0.00 0.00 67 1016.0
20260902040508 83 92 1.0 5.0 0.00 0.00 0.00 67 1015.3
20260902040027 83 102 1.0 5.0 0.00 0.00 0.00 68 1015.3
20260902040023 83 117 1.0 6.0 0.00 0.00 0.00 68 1016.0
20260902035516 83 53 1.0 6.0 0.00 0.00 0.00 67 1015.2
20260902035511 83 113 1.0 6.0 0.00 0.00 0.00 67 1015.9
20260902035015 83 127 1.0 5.0 0.00 0.00 0.00 68 1015.8
20260902035007 83 92 1.0 6.0 0.00 0.00 0.00 68 1015.2
20260902034524 83 92 0.0 4.0 0.00 0.00 0.00 67 1015.9
20260902034015 82 113 1.0 4.0 0.00 0.00 0.00 68 1015.1
20260902034013 82 141 0.0 2.0 0.00 0.00 0.00 68 1015.8
20260902033515 82 92 0.0 2.0 0.00 0.00 0.00 68 1015.8
20260902033503 82 88 0.0 3.0 0.00 0.00 0.00 68 1015.1
20260902033016 82 163 0.0 2.0 0.00 0.00 0.00 69 1015.7
20260902033006 82 98 0.0 2.0 0.00 0.00 0.00 69 1015.0
20260902032514 82 98 0.0 2.0 0.00 0.00 0.00 70 1015.6
20260902032507 82 94 1.0 2.0 0.00 0.00 0.00 70 1014.9
20260902032014 82 105 0.0 2.0 0.00 0.00 0.00 69 1015.5
20260902032005 82 72 1.0 2.0 0.00 0.00 0.00 69 1014.7
20260902031539 82 117 0.0 2.0 0.00 0.00 0.00 69 1015.4
20260902031510 82 90 0.0 2.0 0.00 0.00 0.00 69 1014.7
20260902031007 82 113 0.0 2.0 0.00 0.00 0.00 68 1015.3
20260902030508 82 113 0.0 2.0 0.00 0.00 0.00 68 1015.2
20260902030018 83 180 0.0 2.0 0.00 0.00 0.00 67 1015.2
20260902030006 83 143 0.0 2.0 0.00 0.00 0.00 67 1014.5
20260902025508 83 143 0.0 2.0 0.00 0.00 0.00 66 1014.4
20260902025011 83 139 0.0 2.0 0.00 0.00 0.00 67 1015.0
20260902024534 83 143 0.0 2.0 0.00 0.00 0.00 65 1014.2
20260902024524 83 139 0.0 0.0 0.00 0.00 0.00 65 1015.0
20260902024012 83 139 0.0 1.0 0.00 0.00 0.00 64 1014.9
20260902024006 83 143 0.0 2.0 0.00 0.00 0.00 64 1014.1
20260902023509 83 76 0.0 2.0 0.00 0.00 0.00 66 1014.0
20260902023029 83 76 0.0 2.0 0.00 0.00 0.00 65 1013.9
20260902022515 83 139 0.0 2.0 0.00 0.00 0.00 66 1014.5
20260902022504 83 76 0.0 2.0 0.00 0.00 0.00 66 1014.0
20260902022008 83 139 0.0 2.0 0.00 0.00 0.00 66 1014.5
20260902022004 83 76 0.0 2.0 0.00 0.00 0.00 66 1013.8
20260902021536 83 139 0.0 2.0 0.00 0.00 0.00 65 1014.5
20260902021514 83 76 0.0 2.0 0.00 0.00 0.00 64 1013.7
20260902021016 83 121 0.0 2.0 0.00 0.00 0.00 64 1014.5
20260902021004 83 103 0.0 2.0 0.00 0.00 0.00 64 1013.6
20260902020507 84 121 0.0 2.0 0.00 0.00 0.00 63 1014.3
20260902020504 84 103 0.0 2.0 0.00 0.00 0.00 63 1013.6
20260902020018 84 103 0.0 2.0 0.00 0.00 0.00 65 1013.5
20260902015508 84 103 0.0 2.0 0.00 0.00 0.00 64 1013.5
20260902015007 84 121 0.0 0.0 0.00 0.00 0.00 63 1014.2
20260902015004 84 103 0.0 2.0 0.00 0.00 0.00 63 1013.4
20260902014535 85 121 0.0 0.0 0.00 0.00 0.00 62 1014.2
20260902014528 85 103 0.0 1.0 0.00 0.00 0.00 62 1013.4
20260902014013 85 121 0.0 0.0 0.00 0.00 0.00 62 1014.1
20260902013517 85 103 0.0 0.0 0.00 0.00 0.00 60 1013.3
20260902013511 85 121 0.0 0.0 0.00 0.00 0.00 60 1014.1
20260902013027 86 121 0.0 0.0 0.00 0.00 0.00 61 1014.1
20260902013014 86 103 0.0 0.0 0.00 0.00 0.00 61 1013.3
20260902012512 86 103 0.0 0.0 0.00 0.00 0.00 58 1013.2
20260902012016 87 121 0.0 0.0 0.00 0.00 0.00 58 1014.1
20260902012014 87 103 0.0 0.0 0.00 0.00 0.00 58 1013.2
20260902011531 87 121 0.0 0.0 0.00 0.00 0.00 58 1013.9
20260902011508 87 103 0.0 2.0 0.00 0.00 0.00 58 1013.1
20260902011008 88 121 0.0 2.0 0.00 0.00 0.00 56 1013.9
20260902011006 88 103 0.0 2.0 0.00 0.00 0.00 56 1012.9
20260902010512 89 121 0.0 2.0 0.00 0.00 0.00 55 1013.8
20260902010507 89 103 0.0 2.0 0.00 0.00 0.00 55 1013.0
20260902010029 89 121 0.0 2.0 0.00 0.00 0.00 53 1013.7
20260902010024 89 103 0.0 2.0 0.00 0.00 0.00 53 1013.0
20260902005507 90 121 0.0 2.0 0.00 0.00 0.00 53 1013.8
20260902005011 91 103 0.0 2.0 0.00 0.00 0.00 52 1013.8
20260902005009 91 103 0.0 2.0 0.00 0.00 0.00 52 1012.9
20260902004523 91 157 0.0 2.0 0.00 0.00 0.00 52 1013.7
20260902004521 91 94 0.0 2.0 0.00 0.00 0.00 52 1012.9
20260902004012 91 171 0.0 3.0 0.00 0.00 0.00 53 1013.7
20260902004007 91 94 1.0 3.0 0.00 0.00 0.00 53 1013.0
20260902003511 92 172 0.0 3.0 0.00 0.00 0.00 51 1013.7
20260902003508 92 98 0.0 3.0 0.00 0.00 0.00 51 1013.0
20260902003029 92 120 1.0 3.0 0.00 0.00 0.00 50 1013.8
20260902002515 92 113 1.0 3.0 0.00 0.00 0.00 49 1013.1
20260902002012 93 154 1.0 4.0 0.00 0.00 0.00 49 1014.0
20260902002007 93 76 1.0 6.0 0.00 0.00 0.00 49 1013.1
20260902001525 93 107 2.0 6.0 0.00 0.00 0.00 49 1013.1
20260902001015 93 71 0.0 7.0 0.00 0.00 0.00 48 1013.2
20260902000516 93 238 0.0 4.0 0.00 0.00 0.00 48 1013.9
20260902000033 93 194 1.0 8.0 0.00 0.00 0.00 48 1013.9
20260902000013 93 210 1.0 8.0 0.00 0.00 0.00 48 1013.1
20260901235514 93 243 1.0 8.0 0.00 0.00 0.00 47 1013.8
20260901235508 93 72 1.0 8.0 0.00 0.00 0.00 47 1013.1
20260901235014 93 360 1.0 4.0 0.00 0.00 0.00 47 1013.8
20260901235007 93 78 1.0 7.0 0.00 0.00 0.00 47 1013.1
20260901234535 93 162 1.0 4.0 0.00 0.00 0.00 47 1013.8
20260901234515 93 103 2.0 7.0 0.00 0.00 0.00 47 1013.1
20260901234009 94 344 1.0 5.0 0.00 0.00 0.00 46 1013.2
20260901233512 94 66 0.0 4.0 0.00 0.00 0.00 46 1013.8
20260901233510 94 103 0.0 5.0 0.00 0.00 0.00 46 1013.1
20260901233048 94 22 2.0 4.0 0.00 0.00 0.00 47 1013.1
20260901233022 94 71 1.0 4.0 0.00 0.00 0.00 47 1014.0
20260901232508 94 92 1.0 3.0 0.00 0.00 0.00 45 1013.1
20260901232506 94 48 1.0 3.0 0.00 0.00 0.00 45 1014.0
20260901232014 95 88 1.0 6.0 0.00 0.00 0.00 46 1013.0
20260901232010 95 123 0.0 6.0 0.00 0.00 0.00 46 1013.8
20260901231533 96 193 0.0 5.0 0.00 0.00 0.00 43 1013.7
20260901231505 96 62 1.0 7.0 0.00 0.00 0.00 43 1013.0
20260901231014 97 181 1.0 5.0 0.00 0.00 0.00 42 1013.7
20260901231006 97 84 2.0 7.0 0.00 0.00 0.00 42 1012.9
20260901230510 97 134 1.0 6.0 0.00 0.00 0.00 43 1013.5
20260901230504 97 105 2.0 6.0 0.00 0.00 0.00 43 1012.8
20260901230033 97 322 2.0 6.0 0.00 0.00 0.00 44 1013.6
20260901230005 97 331 3.0 6.0 0.00 0.00 0.00 44 1012.8
20260901225514 96 164 2.0 6.0 0.00 0.00 0.00 42 1013.6
20260901225504 96 53 1.0 6.0 0.00 0.00 0.00 42 1012.8
20260901225008 96 101 0.0 6.0 0.00 0.00 0.00 43 1013.6
20260901224528 97 86 3.0 6.0 0.00 0.00 0.00 45 1013.6
20260901224516 97 98 2.0 7.0 0.00 0.00 0.00 45 1012.9
20260901224015 97 174 2.0 9.0 0.00 0.00 0.00 42 1013.6
20260901224007 97 143 2.0 9.0 0.00 0.00 0.00 42 1012.9
20260901223508 98 76 3.0 9.0 0.00 0.00 0.00 42 1013.0
20260901223021 98 136 2.0 7.0 0.00 0.00 0.00 44 1012.8
20260901222510 98 346 2.0 6.0 0.00 0.00 0.00 42 1013.7
20260901222504 98 28 3.0 6.0 0.00 0.00 0.00 42 1012.9
20260901222012 98 130 1.0 6.0 0.00 0.00 0.00 39 1013.7
20260901222004 98 100 1.0 7.0 0.00 0.00 0.00 39 1013.0
20260901221542 98 117 3.0 6.0 0.00 0.00 0.00 39 1013.7
20260901221519 98 101 1.0 7.0 0.00 0.00 0.00 39 1013.0
20260901221015 98 360 2.0 6.0 0.00 0.00 0.00 39 1013.1
20260901220514 98 121 2.0 6.0 0.00 0.00 0.00 41 1013.8
20260901220504 98 69 2.0 6.0 0.00 0.00 0.00 41 1013.1
20260901220031 98 27 1.0 6.0 0.00 0.00 0.00 40 1013.8
20260901220010 98 53 1.0 7.0 0.00 0.00 0.00 40 1013.1
20260901215514 98 228 1.0 5.0 0.00 0.00 0.00 39 1013.8
20260901215505 98 338 2.0 7.0 0.00 0.00 0.00 39 1013.1
20260901215020 99 51 1.0 4.0 0.00 0.00 0.00 41 1013.9
20260901215005 99 96 2.0 5.0 0.00 0.00 0.00 41 1013.2
20260901214533 99 192 1.0 5.0 0.00 0.00 0.00 40 1013.9
20260901214526 99 61 1.0 6.0 0.00 0.00 0.00 40 1013.2
20260901214020 98 134 1.0 5.0 0.00 0.00 0.00 39 1013.9
20260901214008 98 65 2.0 6.0 0.00 0.00 0.00 39 1013.2
20260901213513 97 69 2.0 4.0 0.00 0.00 0.00 45 1013.9
20260901213508 97 91 1.0 6.0 0.00 0.00 0.00 45 1013.2
20260901213033 95 65 1.0 5.0 0.00 0.00 0.00 46 1014.0
20260901213009 95 55 1.0 5.0 0.00 0.00 0.00 46 1013.1
20260901212510 95 119 1.0 5.0 0.00 0.00 0.00 46 1014.0
20260901212014 95 198 1.0 5.0 0.00 0.00 0.00 46 1014.0
20260901212012 95 63 1.0 5.0 0.00 0.00 0.00 46 1013.3
20260901211532 96 217 1.0 4.0 0.00 0.00 0.00 45 1014.0
20260901211528 96 74 1.0 5.0 0.00 0.00 0.00 45 1013.3
20260901211014 98 106 1.0 6.0 0.00 0.00 0.00 45 1014.1
20260901211012 98 81 1.0 6.0 0.00 0.00 0.00 45 1013.3
20260901210512 97 32 2.0 5.0 0.00 0.00 0.00 44 1014.3
20260901210508 97 70 2.0 5.0 0.00 0.00 0.00 44 1013.4
20260901210027 95 196 1.0 5.0 0.00 0.00 0.00 46 1014.3
20260901205518 95 337 0.0 4.0 0.00 0.00 0.00 46 1014.4
20260901205504 95 341 2.0 5.0 0.00 0.00 0.00 46 1013.5
20260901205008 96 144 1.0 8.0 0.00 0.00 0.00 44 1014.4
20260901204514 98 352 2.0 9.0 0.00 0.00 0.00 43 1013.8
20260901204509 98 53 1.0 8.0 0.00 0.00 0.00 43 1014.5
20260901204010 99 94 2.0 6.0 0.00 0.00 0.00 43 1013.8
20260901204007 99 145 1.0 6.0 0.00 0.00 0.00 43 1014.6
20260901203507 98 50 1.0 5.0 0.00 0.00 0.00 42 1013.9
20260901203039 98 190 0.0 4.0 0.00 0.00 0.00 42 1014.6
20260901203015 98 107 1.0 5.0 0.00 0.00 0.00 42 1013.8
20260901202507 98 155 3.0 6.0 0.00 0.00 0.00 42 1013.8
20260901202012 99 132 2.0 5.0 0.00 0.00 0.00 43 1014.9
20260901202001 99 128 1.0 4.0 0.00 0.00 0.00 43 1014.0
20260901201530 99 311 1.0 3.0 0.00 0.00 0.00 41 1015.0
20260901201514 99 58 1.0 4.0 0.00 0.00 0.00 41 1014.1
20260901201012 100 44 2.0 4.0 0.00 0.00 0.00 41 1015.1
20260901200513 99 65 1.0 6.0 0.00 0.00 0.00 43 1015.1
20260901200022 98 173 1.0 6.0 0.00 0.00 0.00 44 1014.3
20260901200014 98 288 1.0 6.0 0.00 0.00 0.00 44 1015.1
20260901195508 98 67 1.0 5.0 0.00 0.00 0.00 43 1014.3
20260901195019 98 203 2.0 5.0 0.00 0.00 0.00 44 1014.3
20260901194531 96 198 1.0 8.0 0.00 0.00 0.00 45 1015.4
20260901194513 96 166 1.0 8.0 0.00 0.00 0.00 45 1014.4
20260901194011 95 186 1.0 8.0 0.00 0.00 0.00 46 1015.5
20260901194009 95 38 2.0 8.0 0.00 0.00 0.00 46 1014.6
20260901193507 97 115 1.0 4.0 0.00 0.00 0.00 45 1015.5
20260901193014 96 11 2.0 6.0 0.00 0.00 0.00 45 1014.8
20260901193012 96 25 1.0 6.0 0.00 0.00 0.00 45 1015.5
20260901192504 99 188 1.0 7.0 0.00 0.00 0.00 46 1015.4
20260901192008 99 38 3.0 7.0 0.00 0.00 0.00 44 1015.5
20260901191522 99 17 1.0 3.0 0.00 0.00 0.00 45 1015.6
20260901191518 99 340 3.0 7.0 0.00 0.00 0.00 45 1014.7
20260901191016 99 71 1.0 6.0 0.00 0.00 0.00 44 1015.6
20260901191010 99 110 1.0 6.0 0.00 0.00 0.00 44 1014.7
20260901190511 97 103 1.0 6.0 0.00 0.00 0.00 46 1014.9
20260901190507 97 279 0.0 6.0 0.00 0.00 0.00 46 1015.6
20260901190030 98 116 3.0 6.0 0.00 0.00 0.00 44 1015.7
20260901185517 97 22 1.0 3.0 0.00 0.00 0.00 43 1015.8
20260901185512 97 188 0.0 8.0 0.00 0.00 0.00 43 1015.1
20260901185008 98 298 1.0 9.0 0.00 0.00 0.00 43 1015.2
20260901184523 98 200 2.0 6.0 0.00 0.00 0.00 43 1016.0
20260901184520 98 170 3.0 9.0 0.00 0.00 0.00 43 1015.3
20260901184015 97 150 3.0 9.0 0.00 0.00 0.00 46 1015.3
20260901183518 95 59 1.0 6.0 0.00 0.00 0.00 48 1015.5
20260901183016 93 44 1.0 6.0 0.00 0.00 0.00 50 1016.2
20260901182507 94 157 1.0 4.0 0.00 0.00 0.00 49 1015.8
20260901182008 94 322 1.0 4.0 0.00 0.00 0.00 49 1015.9
20260901181519 92 30 0.0 2.0 0.00 0.00 0.00 51 1016.5
20260901181010 94 55 2.0 6.0 0.00 0.00 0.00 49 1016.0
20260901181007 94 80 1.0 6.0 0.00 0.00 0.00 49 1016.6
20260901180513 96 88 2.0 9.0 0.00 0.00 0.00 47 1016.2
20260901180509 96 204 1.0 8.0 0.00 0.00 0.00 47 1016.7
20260901180025 95 89 1.0 9.0 0.00 0.00 0.00 47 1016.3
20260901175511 94 352 1.0 4.0 0.00 0.00 0.00 50 1017.1
20260901175508 94 185 2.0 5.0 0.00 0.00 0.00 50 1016.4
20260901175013 94 137 1.0 8.0 0.00 0.00 0.00 51 1017.2
20260901174532 95 250 1.0 8.0 0.00 0.00 0.00 51 1017.3
20260901174530 95 336 1.0 8.0 0.00 0.00 0.00 51 1016.5
20260901174016 91 250 1.0 4.0 0.00 0.00 0.00 52 1016.6
20260901174008 91 318 1.0 4.0 0.00 0.00 0.00 52 1017.2
20260901173509 92 103 1.0 7.0 0.00 0.00 0.00 53 1016.8
20260901173507 92 109 1.0 7.0 0.00 0.00 0.00 53 1017.3
20260901173028 94 66 2.0 7.0 0.00 0.00 0.00 49 1016.8
20260901172518 96 263 1.0 3.0 0.00 0.00 0.00 49 1017.6
20260901172516 96 234 2.0 7.0 0.00 0.00 0.00 49 1016.8
20260901172007 93 244 1.0 6.0 0.00 0.00 0.00 51 1017.6
20260901171515 94 167 1.0 6.0 0.00 0.00 0.00 54 1017.7
20260901171512 94 184 1.0 7.0 0.00 0.00 0.00 54 1016.9
20260901171010 93 263 4.0 7.0 0.00 0.00 0.00 54 1017.0
20260901171007 93 275 1.0 3.0 0.00 0.00 0.00 54 1017.8
20260901170508 93 32 1.0 3.0 0.00 0.00 0.00 55 1017.9
20260901170506 93 322 2.0 4.0 0.00 0.00 0.00 55 1017.1
20260901170020 93 159 1.0 6.0 0.00 0.00 0.00 54 1017.1
20260901170018 93 196 2.0 4.0 0.00 0.00 0.00 54 1017.9
20260901165512 93 119 2.0 4.0 0.00 0.00 0.00 53 1018.0
20260901165013 93 243 1.0 9.0 0.00 0.00 0.00 55 1017.2
20260901164523 92 117 1.0 5.0 0.00 0.00 0.00 54 1018.0
20260901164520 92 184 1.0 6.0 0.00 0.00 0.00 54 1017.2
20260901164011 92 216 1.0 5.0 0.00 0.00 0.00 54 1017.8
20260901163518 92 77 0.0 4.0 0.00 0.00 0.00 54 1017.2
20260901163516 92 203 1.0 4.0 0.00 0.00 0.00 54 1017.7
20260901163030 91 5 1.0 3.0 0.00 0.00 0.00 58 1017.8
20260901163017 91 209 2.0 4.0 0.00 0.00 0.00 58 1017.3
20260901162513 91 240 2.0 4.0 0.00 0.00 0.00 56 1017.2
20260901162508 91 307 1.0 3.0 0.00 0.00 0.00 56 1017.8
20260901162015 91 269 1.0 3.0 0.00 0.00 0.00 62 1018.0
20260901162012 91 269 2.0 4.0 0.00 0.00 0.00 62 1017.3
20260901161543 91 274 2.0 3.0 0.00 0.00 0.00 60 1017.3
20260901161538 91 223 1.0 3.0 0.00 0.00 0.00 60 1018.1
20260901161012 91 277 1.0 3.0 0.00 0.00 0.00 58 1018.2
20260901161008 91 280 0.0 4.0 0.00 0.00 0.00 58 1017.4
20260901160508 90 210 1.0 4.0 0.00 0.00 0.00 61 1017.3
20260901160036 90 200 1.0 3.0 0.00 0.00 0.00 61 1018.2
20260901160018 90 265 2.0 4.0 0.00 0.00 0.00 61 1017.4
20260901155509 90 206 1.0 2.0 0.00 0.00 0.00 60 1018.2
20260901155013 89 147 0.0 2.0 0.00 0.00 0.00 64 1018.1
20260901154528 89 257 1.0 4.0 0.00 0.00 0.00 62 1017.3
20260901154525 89 137 0.0 3.0 0.00 0.00 0.00 62 1018.0
20260901154014 88 158 0.0 3.0 0.00 0.00 0.00 62 1017.3
20260901154012 88 322 1.0 3.0 0.00 0.00 0.00 62 1018.2
20260901153510 88 113 1.0 3.0 0.00 0.00 0.00 64 1017.4
20260901153042 88 141 2.0 3.0 0.00 0.00 0.00 66 1017.4
20260901153032 88 169 0.0 2.0 0.00 0.00 0.00 66 1018.1
20260901152518 87 146 0.0 3.0 0.00 0.00 0.00 68 1018.2
20260901152516 87 98 1.0 3.0 0.00 0.00 0.00 68 1017.4
20260901152017 87 51 2.0 3.0 0.00 0.00 0.00 69 1018.2
20260901151524 87 281 2.0 4.0 0.00 0.00 0.00 70 1017.4
20260901151020 86 65 2.0 4.0 0.00 0.00 0.00 71 1018.3
20260901151015 86 172 2.0 4.0 0.00 0.00 0.00 71 1017.4
20260901150520 86 281 2.0 6.0 0.00 0.00 0.00 74 1017.4
20260901150517 86 258 1.0 3.0 0.00 0.00 0.00 74 1018.3
20260901150018 85 238 0.0 2.0 0.00 0.00 0.00 74 1018.3
20260901145511 85 283 2.0 6.0 0.00 0.00 0.00 76 1017.4
20260901145506 85 246 1.0 4.0 0.00 0.00 0.00 76 1018.3
20260901145009 85 19 1.0 4.0 0.00 0.00 0.00 77 1018.4
20260901145007 85 281 3.0 7.0 0.00 0.00 0.00 77 1017.5
20260901144529 84 250 3.0 7.0 0.00 0.00 0.00 78 1017.5
20260901144518 84 229 1.0 4.0 0.00 0.00 0.00 78 1018.4
20260901144025 84 295 3.0 7.0 0.00 0.00 0.00 78 1017.6
20260901144010 84 50 1.0 4.0 0.00 0.00 0.00 78 1018.4
20260901143513 83 258 1.0 4.0 0.00 0.00 0.00 81 1018.4
20260901143511 83 267 3.0 7.0 0.00 0.00 0.00 81 1017.5
20260901143032 82 19 0.0 4.0 0.00 0.00 0.00 82 1018.3
20260901142511 82 21 1.0 3.0 0.00 0.00 0.00 83 1018.3
20260901142502 82 302 1.0 7.0 0.00 0.00 0.00 83 1017.5
20260901142014 82 241 0.0 2.0 0.00 0.00 0.00 83 1018.3
20260901142005 82 241 3.0 7.0 0.00 0.00 0.00 83 1017.5
20260901141530 82 299 0.0 4.0 0.00 0.00 0.00 84 1018.3
20260901141509 82 271 2.0 6.0 0.00 0.00 0.00 84 1017.5
20260901141014 81 181 1.0 4.0 0.00 0.00 0.00 85 1018.3
20260901140512 81 238 1.0 2.0 0.00 0.00 0.00 86 1018.3
20260901140509 81 248 3.0 5.0 0.00 0.00 0.00 86 1017.5
20260901140027 80 349 0.0 2.0 0.00 0.00 0.00 88 1018.4
20260901140004 80 267 0.0 4.0 0.00 0.00 0.00 88 1017.5
20260901135517 79 232 0.0 2.0 0.00 0.00 0.00 88 1018.4
20260901135506 79 228 1.0 4.0 0.00 0.00 0.00 88 1017.6
20260901135011 79 9 0.0 2.0 0.00 0.00 0.00 90 1018.4
20260901135005 79 268 0.0 3.0 0.00 0.00 0.00 90 1017.5
20260901134531 78 230 1.0 2.0 0.00 0.00 0.00 91 1018.4
20260901134506 78 228 1.0 3.0 0.00 0.00 0.00 91 1017.5
20260901134013 77 267 0.0 2.0 0.00 0.00 0.00 91 1017.5
20260901134010 77 202 0.0 2.0 0.00 0.00 0.00 91 1018.4
20260901133511 77 202 0.0 2.0 0.00 0.00 0.00 92 1018.3
20260901133505 77 233 0.0 2.0 0.00 0.00 0.00 92 1017.4
20260901133026 76 76 0.0 1.0 0.00 0.00 0.00 92 1018.2
20260901133004 76 233 0.0 0.0 0.00 0.00 0.00 92 1017.4
20260901132516 76 157 0.0 0.0 0.00 0.00 0.00 92 1018.2
20260901132503 76 153 0.0 0.0 0.00 0.00 0.00 92 1017.4
20260901132014 75 157 0.0 0.0 0.00 0.00 0.00 93 1018.2
20260901132004 75 154 0.0 0.0 0.00 0.00 0.00 93 1017.4
20260901131522 75 157 0.0 0.0 0.00 0.00 0.00 93 1018.2
20260901131506 75 153 0.0 0.0 0.00 0.00 0.00 93 1017.4
20260901131014 75 157 0.0 0.0 0.00 0.00 0.00 93 1018.2
20260901131004 75 154 0.0 0.0 0.00 0.00 0.00 93 1017.4
20260901130516 74 157 0.0 0.0 0.00 0.00 0.00 93 1018.3
20260901130506 74 153 0.0 0.0 0.00 0.00 0.00 93 1017.4
20260901130034 74 157 0.0 0.0 0.00 0.00 0.00 93 1018.2
20260901130012 74 153 0.0 0.0 0.00 0.00 0.00 93 1017.3
20260901125511 74 157 0.0 0.0 0.00 0.00 0.00 93 1018.2
20260901125509 74 153 0.0 0.0 0.00 0.00 0.00 93 1017.4
20260901125012 74 157 0.0 0.0 0.00 0.00 0.00 93 1018.1
20260901125003 74 153 0.0 0.0 0.00 0.00 0.00 93 1017.3
20260901124533 73 157 0.0 0.0 0.00 0.00 0.00 93 1018.0
20260901124515 73 153 0.0 0.0 0.00 0.00 0.00 93 1017.1
20260901124014 73 153 0.0 0.0 0.00 0.00 0.00 93 1017.1
20260901124007 73 157 0.0 0.0 0.00 0.00 0.00 93 1018.0
20260901123510 73 157 0.0 0.0 0.00 0.00 0.00 93 1017.9
20260901123505 73 153 0.0 0.0 0.00 0.00 0.00 93 1017.1
20260901123027 73 157 0.0 0.0 0.00 0.00 0.00 93 1017.8
20260901123011 73 153 0.0 0.0 0.00 0.00 0.00 93 1017.1
20260901122511 73 157 0.0 0.0 0.00 0.00 0.00 92 1017.7
20260901122506 73 153 0.0 0.0 0.00 0.00 0.00 92 1017.0
20260901122013 73 157 0.0 0.0 0.00 0.00 0.00 92 1017.7
20260901122006 73 153 0.0 0.0 0.00 0.00 0.00 92 1016.8
20260901121530 73 157 0.0 0.0 0.00 0.00 0.00 92 1017.7
20260901121503 73 153 0.0 0.0 0.00 0.00 0.00 92 1016.8
20260901121016 73 157 0.0 0.0 0.00 0.00 0.00 92 1017.6
20260901121002 73 153 0.0 0.0 0.00 0.00 0.00 92 1016.7
20260901120516 73 157 0.0 0.0 0.00 0.00 0.00 92 1017.5
20260901120504 73 153 0.0 0.0 0.00 0.00 0.00 92 1016.7
20260901120030 73 157 0.0 0.0 0.00 0.00 0.00 92 1017.5
20260901120005 73 153 0.0 0.0 0.00 0.00 0.00 92 1016.7
20260901115517 73 157 0.0 0.0 0.00 0.00 0.00 92 1017.4
20260901115503 73 153 0.0 0.0 0.00 0.00 0.00 92 1016.7
20260901115006 73 153 0.0 0.0 0.00 0.00 0.00 92 1016.6
20260901114515 74 153 0.0 0.0 0.00 0.00 0.00 92 1016.6
20260901114512 74 157 0.0 0.0 0.00 0.00 0.00 92 1017.3
20260901114004 74 157 0.0 0.0 0.00 0.00 0.00 92 1017.3
20260901113508 74 153 0.0 0.0 0.00 0.00 0.00 92 1016.5
20260901113504 74 157 0.0 0.0 0.00 0.00 0.00 92 1017.3
20260901113016 73 157 0.0 0.0 0.00 0.00 0.00 92 1017.3
20260901113012 73 153 0.0 0.0 0.00 0.00 0.00 92 1016.5
20260901112504 74 157 0.0 0.0 0.00 0.00 0.00 92 1017.4
20260901112006 74 157 0.0 0.0 0.00 0.00 0.00 91 1017.3
20260901112003 74 153 0.0 0.0 0.00 0.00 0.00 91 1016.6
20260901111514 74 153 0.0 0.0 0.00 0.00 0.00 91 1016.5
20260901111512 74 157 0.0 0.0 0.00 0.00 0.00 91 1017.3
20260901111014 74 153 0.0 0.0 0.00 0.00 0.00 91 1016.5
20260901111004 74 157 0.0 0.0 0.00 0.00 0.00 91 1017.3
20260901110503 74 157 0.0 0.0 0.00 0.00 0.00 91 1017.2
20260901110009 74 157 0.0 0.0 0.00 0.00 0.00 91 1017.2
20260901105503 74 157 0.0 0.0 0.00 0.00 0.00 91 1017.2
20260901105010 74 153 0.0 0.0 0.00 0.00 0.00 91 1016.5
20260901105005 74 157 0.0 0.0 0.00 0.00 0.00 91 1017.2
20260901104514 74 153 0.0 0.0 0.00 0.00 0.00 91 1016.5
20260901104512 74 157 0.0 0.0 0.00 0.00 0.00 91 1017.2
20260901104008 74 153 0.0 0.0 0.00 0.00 0.00 91 1016.4
20260901104004 74 157 0.0 0.0 0.00 0.00 0.00 91 1017.2
20260901103507 74 153 0.0 0.0 0.00 0.00 0.00 91 1016.4
20260901103011 75 157 0.0 0.0 0.00 0.00 0.00 91 1017.1
20260901103007 75 153 0.0 0.0 0.00 0.00 0.00 91 1016.4
20260901102510 75 153 0.0 0.0 0.00 0.00 0.00 91 1016.4
20260901102506 75 157 0.0 0.0 0.00 0.00 0.00 91 1017.1
20260901102011 75 153 0.0 0.0 0.00 0.00 0.00 90 1016.3
20260901102006 75 157 0.0 0.0 0.00 0.00 0.00 90 1017.1
20260901101514 75 153 0.0 0.0 0.00 0.00 0.00 90 1016.3
20260901101505 75 157 0.0 0.0 0.00 0.00 0.00 90 1017.0
20260901101006 75 153 0.0 0.0 0.00 0.00 0.00 90 1016.3
20260901100508 75 153 0.0 0.0 0.00 0.00 0.00 90 1016.3
20260901100506 75 157 0.0 0.0 0.00 0.00 0.00 90 1017.0
20260901100016 75 153 0.0 0.0 0.00 0.00 0.00 90 1016.3
20260901100008 75 157 0.0 0.0 0.00 0.00 0.00 90 1017.0
20260901095503 75 153 0.0 0.0 0.00 0.00 0.00 90 1016.2
20260901095003 75 157 0.0 0.0 0.00 0.00 0.00 89 1016.8
20260901094510 75 153 0.0 0.0 0.00 0.00 0.00 89 1016.2
20260901094005 75 153 0.0 0.0 0.00 0.00 0.00 89 1016.2
20260901094002 75 157 0.0 0.0 0.00 0.00 0.00 89 1016.9
20260901093511 75 157 0.0 0.0 0.00 0.00 0.00 89 1017.0
20260901093503 75 153 0.0 0.0 0.00 0.00 0.00 89 1016.3
20260901093019 75 157 0.0 0.0 0.00 0.00 0.00 89 1017.1
20260901093014 75 153 0.0 0.0 0.00 0.00 0.00 89 1016.3
20260901092508 75 153 0.0 0.0 0.00 0.00 0.00 89 1016.4
20260901092006 75 153 0.0 0.0 0.00 0.00 0.00 89 1016.4
20260901092004 75 157 0.0 0.0 0.00 0.00 0.00 89 1017.2
20260901091519 75 153 0.0 0.0 0.00 0.00 0.00 89 1016.4
20260901091512 75 157 0.0 0.0 0.00 0.00 0.00 89 1017.2
20260901091013 75 153 0.0 0.0 0.00 0.00 0.00 88 1016.4
20260901091007 75 157 0.0 0.0 0.00 0.00 0.00 88 1017.2
20260901090510 75 153 0.0 0.0 0.00 0.00 0.00 88 1016.4
20260901090504 75 157 0.0 0.0 0.00 0.00 0.00 88 1017.2
20260901090014 75 157 0.0 0.0 0.00 0.00 0.00 88 1017.1
20260901090012 75 153 0.0 0.0 0.00 0.00 0.00 88 1016.4
20260901085509 75 153 0.0 0.0 0.00 0.00 0.00 88 1016.4
20260901085507 75 157 0.0 0.0 0.00 0.00 0.00 88 1017.2
20260901085011 75 153 0.0 0.0 0.00 0.00 0.00 88 1016.4
20260901085007 75 157 0.0 0.0 0.00 0.00 0.00 88 1017.2
20260901084525 75 157 0.0 0.0 0.00 0.00 0.00 88 1017.1
20260901084508 75 153 0.0 0.0 0.00 0.00 0.00 88 1016.4
20260901084005 75 157 0.0 0.0 0.00 0.00 0.00 88 1017.2
20260901084003 75 153 0.0 0.0 0.00 0.00 0.00 88 1016.4
20260901083503 75 157 0.0 0.0 0.00 0.00 0.00 88 1017.2
20260901083018 75 153 0.0 0.0 0.00 0.00 0.00 88 1016.5
20260901083008 75 157 0.0 0.0 0.00 0.00 0.00 88 1017.2
20260901082506 76 153 0.0 0.0 0.00 0.00 0.00 87 1016.4
20260901082008 76 153 0.0 0.0 0.00 0.00 0.00 87 1016.4
20260901082004 76 157 0.0 0.0 0.00 0.00 0.00 87 1017.2
20260901081522 76 153 0.0 0.0 0.00 0.00 0.00 87 1016.4
20260901081513 76 157 0.0 0.0 0.00 0.00 0.00 87 1017.2
20260901081008 76 157 0.0 0.0 0.00 0.00 0.00 86 1017.3
20260901081002 76 153 0.0 0.0 0.00 0.00 0.00 86 1016.5
20260901080508 76 153 0.0 0.0 0.00 0.00 0.00 86 1016.5
20260901080506 76 157 0.0 0.0 0.00 0.00 0.00 86 1017.4
20260901080026 77 153 0.0 0.0 0.00 0.00 0.00 85 1016.6
20260901080014 77 157 0.0 0.0 0.00 0.00 0.00 85 1017.4
20260901075512 76 153 0.0 0.0 0.00 0.00 0.00 86 1016.6
20260901075506 76 157 0.0 0.0 0.00 0.00 0.00 86 1017.4
20260901075007 77 157 0.0 0.0 0.00 0.00 0.00 85 1017.3
20260901075003 77 153 0.0 0.0 0.00 0.00 0.00 85 1016.5
20260901074520 77 153 0.0 0.0 0.00 0.00 0.00 85 1016.5
20260901074515 77 157 0.0 0.0 0.00 0.00 0.00 85 1017.3
20260901074009 77 153 0.0 0.0 0.00 0.00 0.00 84 1016.5
20260901074003 77 157 0.0 0.0 0.00 0.00 0.00 84 1017.3
20260901073509 77 153 0.0 0.0 0.00 0.00 0.00 84 1016.5
20260901073503 77 157 0.0 0.0 0.00 0.00 0.00 84 1017.3
20260901073012 77 157 0.0 0.0 0.00 0.00 0.00 84 1017.3
20260901073010 77 153 0.0 0.0 0.00 0.00 0.00 84 1016.5
20260901072506 78 153 0.0 0.0 0.00 0.00 0.00 83 1016.5
20260901072008 78 153 0.0 0.0 0.00 0.00 0.00 83 1016.5
20260901071514 78 153 0.0 0.0 0.00 0.00 0.00 83 1016.6
20260901071512 78 157 0.0 0.0 0.00 0.00 0.00 83 1017.3
20260901071013 78 153 0.0 1.0 0.00 0.00 0.00 82 1016.6
20260901071008 78 157 0.0 1.0 0.00 0.00 0.00 82 1017.3
20260901070512 78 149 0.0 1.0 0.00 0.00 0.00 82 1016.5
20260901070508 78 157 0.0 1.0 0.00 0.00 0.00 82 1017.3
20260901070026 78 149 0.0 0.0 0.00 0.00 0.00 82 1016.5
20260901070011 78 158 0.0 1.0 0.00 0.00 0.00 82 1017.3
20260901065508 79 176 0.0 0.0 0.00 0.00 0.00 81 1017.3
20260901065013 79 149 0.0 2.0 0.00 0.00 0.00 81 1016.5
20260901065008 79 176 0.0 2.0 0.00 0.00 0.00 81 1017.2
20260901064527 79 176 0.0 2.0 0.00 0.00 0.00 80 1017.2
20260901064525 79 153 0.0 2.0 0.00 0.00 0.00 80 1016.5
20260901064010 79 153 0.0 3.0 0.00 0.00 0.00 80 1016.5
20260901064006 79 176 0.0 2.0 0.00 0.00 0.00 80 1017.3
20260901063509 79 153 1.0 3.0 0.00 0.00 0.00 80 1016.5
20260901063507 79 176 0.0 2.0 0.00 0.00 0.00 80 1017.3
20260901063026 80 138 1.0 4.0 0.00 0.00 0.00 79 1016.5
20260901063013 80 179 0.0 2.0 0.00 0.00 0.00 79 1017.3
20260901062513 80 159 1.0 4.0 0.00 0.00 0.00 79 1016.5
20260901062504 80 171 0.0 2.0 0.00 0.00 0.00 79 1017.2
20260901062007 80 156 0.0 3.0 0.00 0.00 0.00 79 1016.3
20260901062003 80 180 0.0 2.0 0.00 0.00 0.00 79 1017.1
20260901061516 80 190 0.0 2.0 0.00 0.00 0.00 79 1017.1
20260901061514 80 142 1.0 3.0 0.00 0.00 0.00 79 1016.3
20260901061009 80 190 0.0 2.0 0.00 0.00 0.00 79 1017.0
20260901060506 80 165 1.0 3.0 0.00 0.00 0.00 78 1016.3
20260901060024 80 206 0.0 2.0 0.00 0.00 0.00 78 1016.9
20260901060021 80 149 1.0 4.0 0.00 0.00 0.00 78 1016.2
20260901055511 80 172 1.0 5.0 0.00 0.00 0.00 78 1016.0
20260901055508 80 184 0.0 2.0 0.00 0.00 0.00 78 1016.8
20260901055014 81 156 1.0 5.0 0.00 0.00 0.00 77 1016.1
20260901055010 81 178 0.0 2.0 0.00 0.00 0.00 77 1016.8
20260901054524 81 178 0.0 3.0 0.00 0.00 0.00 77 1016.8
20260901054520 81 196 2.0 7.0 0.00 0.00 0.00 77 1016.1
20260901054019 81 158 1.0 7.0 0.00 0.00 0.00 76 1016.0
20260901054010 81 161 0.0 3.0 0.00 0.00 0.00 76 1016.8
20260901053512 81 148 2.0 5.0 0.00 0.00 0.00 76 1016.0
20260901053509 81 93 0.0 2.0 0.00 0.00 0.00 76 1016.8
20260901053018 81 192 1.0 2.0 0.00 0.00 0.00 76 1016.8
20260901053014 81 181 1.0 5.0 0.00 0.00 0.00 76 1016.1
20260901052512 81 149 1.0 6.0 0.00 0.00 0.00 75 1016.0
20260901052507 81 198 1.0 3.0 0.00 0.00 0.00 75 1016.8
20260901052011 81 152 2.0 7.0 0.00 0.00 0.00 75 1016.0
20260901052007 81 201 0.0 3.0 0.00 0.00 0.00 75 1016.8
20260901051535 82 156 3.0 7.0 0.00 0.00 0.00 75 1016.1
20260901051514 82 209 1.0 2.0 0.00 0.00 0.00 75 1016.8
20260901051008 82 115 1.0 7.0 0.00 0.00 0.00 74 1016.0
20260901050510 82 205 0.0 2.0 0.00 0.00 0.00 74 1016.7
20260901050508 82 158 1.0 8.0 0.00 0.00 0.00 74 1016.0
20260901050023 82 180 0.0 2.0 0.00 0.00 0.00 74 1016.7
20260901050020 82 157 2.0 8.0 0.00 0.00 0.00 74 1016.1
20260901045509 82 160 4.0 8.0 0.00 0.00 0.00 73 1016.1
20260901045506 82 169 0.0 2.0 0.00 0.00 0.00 73 1016.8
20260901045012 82 117 0.0 4.0 0.00 0.00 0.00 73 1016.8
20260901045009 82 158 1.0 8.0 0.00 0.00 0.00 73 1016.0
20260901044527 82 160 4.0 7.0 0.00 0.00 0.00 73 1015.9
20260901044523 82 189 1.0 4.0 0.00 0.00 0.00 73 1016.7
20260901044012 82 157 2.0 6.0 0.00 0.00 0.00 72 1015.8
20260901044003 82 72 1.0 3.0 0.00 0.00 0.00 72 1016.6
20260901043509 83 155 0.0 3.0 0.00 0.00 0.00 72 1016.5
20260901043036 83 142 3.0 8.0 0.00 0.00 0.00 72 1015.6
20260901043034 83 157 1.0 4.0 0.00 0.00 0.00 72 1016.4
20260901042513 83 172 0.0 4.0 0.00 0.00 0.00 71 1016.4